Powrót do katalogu

STARLINK-38238

AktywnyŁącznośćSSO
NORAD 100223·PAYLOAD·🇺🇸 United States

Wystrzelony Aug 4, 2026 z Vandenberg Space Force Base

Loading…

Następne Przeloty (najbliższe 24 godziny)

TLE

ŚwieżeSource: Space-Track

Epoka: Sep 14, 2026, 22:47 UTC

1 A0223U 26177L   26257.94984596  .00027984  00000-0  51424-3 0  9995
2 A0223  97.2837 308.7301 0001422  93.7137 266.4277 15.49196442  7574

Śledź STARLINK-38238 w czasie rzeczywistym z AllMySat

Download on the App Store